Date String (YYYY-MM-DD hh:mm:ss) UTC,Instrument flags,absolute air pressure of the measurement (hPa),sample flow rate (lpm),inlet stack bypass flow (lpm),air temperature of the measurement (°C),ambient temperature measured by the external sensor (°C),aerosol sample conditioner tube jacket temperature (°C),OPC LED temperature (°C),internal box temperature (°C),relative humidity of the measurement (%),span deviation,mass concentration of particles derived from Lorenz-Mie calculation of OPC scattering (μg/m³),mass concentration of particles derived from Lorenz-Mie calculation of OPC scattering (μg/m³),mass concentration of particles derived from Lorenz-Mie calculation of OPC scattering (μg/m³)
DateTimeUTC,F1_M11,P_M11,Q1_M11,Q2_M11,T1_M11,T2_M11,T3_M11,T4_M11,T5_M11,U1_M11,ZSPAN_M11,X0_M11,X2_M11,X1_M11
2024-05-05 01:00:00,SystemResetWarning,0825.6,5.00,000.00,025.1,024.3,000.0,033.3,026.9,018.9,0000.0,0015.02,0004.26,0003.14
2024-05-05 01:01:00,SystemResetWarning,0825.6,5.00,000.00,025.1,024.5,000.0,033.4,027.0,019.0,0000.0,0015.48,0004.28,0003.15
2024-05-05 01:02:00,SystemResetWarning,0825.7,5.00,000.00,025.2,024.6,000.0,033.4,027.1,019.0,0000.0,0015.10,0004.34,0003.16
2024-05-05 01:03:00,SystemResetWarning,0825.6,5.00,000.00,025.3,024.8,000.0,033.4,027.2,019.0,0000.0,0014.30,0004.38,0003.17
2024-05-05 01:04:00,SystemResetWarning,0825.7,5.00,000.00,025.3,024.9,000.0,033.4,027.3,018.8,0000.0,0014.49,0004.47,0003.18
2024-05-05 01:05:00,SystemResetWarning,0825.7,5.01,000.00,025.4,025.0,000.0,033.5,027.3,018.8,0000.0,0014.28,0004.51,0003.19
2024-05-05 01:06:00,SystemResetWarning,0825.6,5.01,000.00,025.5,024.9,000.0,033.5,027.3,018.6,0000.0,0015.10,0004.53,0003.19
2024-05-05 01:07:00,SystemResetWarning,0825.6,4.98,000.00,025.2,023.1,000.0,033.6,026.3,018.7,0000.0,0015.25,0004.52,0003.19
2024-05-05 01:08:00,SystemResetWarning,0825.6,5.02,000.00,024.9,022.2,000.0,033.6,025.8,019.2,0000.0,0016.29,0004.54,0003.20
2024-05-05 01:09:00,SystemResetWarning,0825.6,5.00,000.00,024.8,022.5,000.0,033.5,025.8,019.5,0000.0,0015.96,0004.54,0003.21
2024-05-05 01:10:00,SystemResetWarning,0825.6,5.00,000.00,024.8,022.8,000.0,033.4,026.1,019.6,0000.0,0016.38,0004.55,0003.21
2024-05-05 01:11:00,SystemResetWarning,0825.6,5.00,000.00,024.8,023.2,000.0,033.3,026.3,019.6,0000.0,0015.74,0004.51,0003.21
2024-05-05 01:12:00,SystemResetWarning,0825.6,5.00,000.00,024.8,023.5,000.0,033.3,026.5,019.3,0000.0,0014.30,0004.43,0003.20
2024-05-05 01:13:00,SystemResetWarning,0825.5,4.99,000.00,024.9,023.8,000.0,033.3,026.6,019.3,0000.0,0015.05,0004.42,0003.20
2024-05-05 01:14:00,SystemResetWarning,0825.6,5.00,000.00,025.0,024.0,000.0,033.3,026.7,019.3,0000.0,0015.51,0004.40,0003.19
2024-05-05 01:15:00,SystemResetWarning,0825.5,5.00,000.00,025.0,024.2,000.0,033.3,026.8,019.2,0000.0,0015.95,0004.36,0003.18
2024-05-05 01:16:00,SystemResetWarning,0825.6,5.00,000.00,025.1,024.4,000.0,033.3,026.9,019.1,0000.0,0015.86,0004.34,0003.18
2024-05-05 01:17:00,SystemResetWarning,0825.5,5.01,000.00,025.1,024.6,000.0,033.3,027.0,018.9,0000.0,0014.77,0004.33,0003.19
2024-05-05 01:18:00,SystemResetWarning,0825.6,5.00,000.00,025.2,024.7,000.0,033.3,027.1,018.8,0000.0,0015.35,0004.29,0003.19
2024-05-05 01:19:00,SystemResetWarning,0825.5,5.00,000.00,025.3,024.8,000.0,033.4,027.2,018.6,0000.0,0014.48,0004.23,0003.18
2024-05-05 01:20:00,SystemResetWarning,0825.5,5.00,000.00,025.3,024.9,000.0,033.4,027.2,018.5,0000.0,0015.00,0004.23,0003.16
2024-05-05 01:21:00,SystemResetWarning,0825.6,5.00,000.00,025.4,025.0,000.0,033.4,027.3,018.5,0000.0,0014.50,0004.25,0003.16
2024-05-05 01:22:00,SystemResetWarning,0825.5,5.00,000.00,025.5,025.1,000.0,033.5,027.4,018.5,0000.0,0014.51,0004.32,0003.17
2024-05-05 01:23:00,SystemResetWarning,0825.5,5.00,000.00,025.5,025.0,000.0,033.5,027.3,018.6,0000.0,0015.91,0004.39,0003.18
2024-05-05 01:24:00,SystemResetWarning,0825.5,4.99,000.00,025.3,023.1,000.0,033.6,026.3,018.8,0000.0,0015.43,0004.38,0003.18
2024-05-05 01:25:00,SystemResetWarning,0825.5,5.02,000.00,024.9,022.1,000.0,033.6,025.7,019.2,0000.0,0015.99,0004.37,0003.18
2024-05-05 01:26:00,SystemResetWarning,0825.4,5.00,000.00,024.8,022.4,000.0,033.5,025.7,019.4,0000.0,0016.23,0004.37,0003.19
2024-05-05 01:27:00,SystemResetWarning,0825.5,5.00,000.00,024.7,022.7,000.0,033.4,026.1,019.5,0000.0,0017.32,0004.43,0003.20
2024-05-05 01:28:00,SystemResetWarning,0825.5,5.00,000.00,024.8,023.1,000.0,033.3,026.3,019.5,0000.0,0018.30,0004.46,0003.20
2024-05-05 01:29:00,SystemResetWarning,0825.6,4.99,000.00,024.8,023.4,000.0,033.3,026.5,019.5,0000.0,0017.00,0004.47,0003.21
2024-05-05 01:30:00,SystemResetWarning,0825.6,4.99,000.00,024.9,023.7,000.0,033.3,026.6,019.5,0000.0,0017.10,0004.52,0003.21
2024-05-05 01:31:00,SystemResetWarning,0825.6,5.01,000.00,025.0,024.0,000.0,033.2,026.7,019.5,0000.0,0017.07,0004.52,0003.22
2024-05-05 01:32:00,SystemResetWarning,0825.6,5.02,000.00,025.0,024.2,000.0,033.2,026.8,019.6,0000.0,0017.19,0004.48,0003.22
2024-05-05 01:33:00,SystemResetWarning,0825.5,5.00,000.00,025.1,024.3,000.0,033.3,026.9,019.4,0000.0,0016.79,0004.44,0003.22
2024-05-05 01:34:00,SystemResetWarning,0825.6,5.00,000.00,025.1,024.5,000.0,033.3,027.0,019.4,0000.0,0015.67,0004.43,0003.22
2024-05-05 01:35:00,SystemResetWarning,0825.6,4.99,000.00,025.2,024.6,000.0,033.3,027.1,019.5,0000.0,0015.58,0004.50,0003.24
2024-05-05 01:36:00,SystemResetWarning,0825.6,4.99,000.00,025.3,024.8,000.0,033.3,027.1,019.5,0000.0,0015.13,0004.60,0003.25
2024-05-05 01:37:00,SystemResetWarning,0825.6,5.00,000.00,025.3,024.9,000.0,033.4,027.2,019.4,0000.0,0014.88,0004.64,0003.27
2024-05-05 01:38:00,SystemResetWarning,0825.6,5.00,000.00,025.4,025.0,000.0,033.4,027.3,019.2,0000.0,0013.55,0004.58,0003.26
2024-05-05 01:39:00,SystemResetWarning,0825.6,5.00,000.00,025.4,025.0,000.0,033.5,027.3,019.2,0000.0,0013.11,0004.54,0003.26
2024-05-05 01:40:00,SystemResetWarning,0825.6,5.01,000.00,025.5,025.0,000.0,033.5,027.3,019.1,0000.0,0013.64,0004.53,0003.25
2024-05-05 01:41:00,SystemResetWarning,0825.5,5.00,000.00,025.3,023.2,000.0,033.6,026.4,019.4,0000.0,0012.88,0004.50,0003.25
2024-05-05 01:42:00,SystemResetWarning,0825.4,5.02,000.00,024.9,022.0,000.0,033.6,025.7,019.9,0000.0,0012.30,0004.48,0003.24
2024-05-05 01:43:00,SystemResetWarning,0825.5,4.99,000.00,024.7,022.3,000.0,033.5,025.7,020.1,0000.0,0012.02,0004.50,0003.23
2024-05-05 01:44:00,SystemResetWarning,0825.5,5.00,000.00,024.7,022.6,000.0,033.4,026.0,020.2,0000.0,0012.96,0004.48,0003.23
2024-05-05 01:45:00,SystemResetWarning,0825.6,5.00,000.00,024.7,023.0,000.0,033.3,026.2,020.0,0000.0,0014.45,0004.46,0003.23
2024-05-05 01:46:00,SystemResetWarning,0825.6,5.01,000.00,024.8,023.3,000.0,033.2,026.4,020.0,0000.0,0014.87,0004.40,0003.21
2024-05-05 01:47:00,SystemResetWarning,0825.6,4.99,000.00,024.8,023.6,000.0,033.2,026.5,020.0,0000.0,0014.85,0004.31,0003.20
2024-05-05 01:48:00,SystemResetWarning,0825.6,4.98,000.00,024.9,023.9,000.0,033.2,026.7,019.8,0000.0,0016.39,0004.24,0003.17
2024-05-05 01:49:00,SystemResetWarning,0825.7,5.00,000.00,025.0,024.1,000.0,033.2,026.8,019.7,0000.0,0016.97,0004.20,0003.15
2024-05-05 01:50:00,SystemResetWarning,0825.7,5.01,000.00,025.0,024.3,000.0,033.2,026.8,019.8,0000.0,0016.88,0004.19,0003.13
2024-05-05 01:51:00,SystemResetWarning,0825.6,5.01,000.00,025.1,024.4,000.0,033.2,026.9,019.3,0000.0,0017.21,0004.21,0003.12
2024-05-05 01:52:00,SystemResetWarning,0825.6,5.00,000.00,025.1,024.6,000.0,033.3,027.0,019.2,0000.0,0017.90,0004.26,0003.12
2024-05-05 01:53:00,SystemResetWarning,0825.6,5.00,000.00,025.2,024.7,000.0,033.3,027.1,019.3,0000.0,0018.66,0004.21,0003.11
2024-05-05 01:54:00,SystemResetWarning,0825.6,4.99,000.00,025.3,024.8,000.0,033.3,027.1,018.9,0000.0,0018.56,0004.20,0003.11
2024-05-05 01:55:00,SystemResetWarning,0825.7,5.00,000.00,025.3,024.9,000.0,033.4,027.2,018.6,0000.0,0018.14,0004.26,0003.09
2024-05-05 01:56:00,SystemResetWarning,0825.7,5.00,000.00,025.4,025.0,000.0,033.4,027.3,018.6,0000.0,0016.61,0004.25,0003.03
2024-05-05 01:57:00,SystemResetWarning,0825.7,5.00,000.00,025.4,025.0,000.0,033.4,027.3,018.4,0000.0,0016.51,0004.25,0002.99
2024-05-05 01:58:00,SystemResetWarning,0825.7,4.99,000.00,025.4,024.5,000.0,033.5,027.0,018.4,0000.0,0016.78,0004.22,0002.95
2024-05-05 01:59:00,SystemResetWarning,0825.6,5.01,000.00,025.1,022.4,000.0,033.6,026.0,018.7,0000.0,0016.11,0004.24,0002.92
